Find Starlink 33813

NORAD ID: 63585 Int'l Des: 2025-076 Owner: SPXS Country: US Constellation: starlink operational
LEOCIRCULAR

当前视图

正在加载3D地球...

About Starlink 33813

Starlink 33813 (NORAD 63585) is a starlink constellation satellite (v2 mini) launched Apr 14, 2025 by SPXS of US. It operates in LEO, CIRCULAR orbit with a mass of 575.00 kg.

即将过境

Passes for default location (London). Set your location on the main map for personalized predictions.

高度历史

Loading altitude history...

两行轨道根数

1 63585U 25076S 26264.11848195 .00010735 00000-0 39883-3 0 9994
2 63585 42.9991 297.5857 0001448 280.3611 79.7077 15.27597288 81723
Epoch: Sep 21, 2026 • Age: 33 hours

当前状态

高度 484.8 km
远地点 / 近地点 N/A
速度 7.63 km/s
星下点 34.02°N, 153.91°E
发射日期 Apr 14, 2025
运行时间 1.4 years
类型 internet

技术详情

分类 Payload
质量 575.00 kg
干质量 530.00 kg
长度 0.30 m
跨度 29.00 m
形状 ? Box + pan
制造商 SPXS
平台类型 Starlink V2MO
阶段状态 In Orbit
所有者/国家 SPXS/US

Most Searched